Regional Weather Roundup
Issued by NWS Sterling, VA

Home | Current Version | Previous Version | Text Only | Print | Product List | Glossary Off
Versions: 1 2 3 4 5 6 7 8 9 10 11 12 13 14 15 16 17 18 19 20 21 22 23 24 25 26 27 28 29 30 31 32 33 34 35 36 37 38 39 40 41 42 43 44 45 46 47 48 49 50

000
ASUS41 KLWX 250311
RWRLWX

REGIONAL WEATHER ROUNDUP
NATIONAL WEATHER SERVICE BALTIMORE MD/WASHINGTON DC
1100 PM EDT THU MAY 24 2018

Note: "FAIR" indicates few or no clouds below 12,000 feet
with no significant weather and/or obstructions to visibility.
 TC=TEMPERATURE CELSIUS

 * =Non NWS site. Station does not report precipitation (e.g. rain,
    snow, etc.), thunder, or fog.

DCZ001-MDZ009-015-VAZ040>042-051-053>054-250400-
WASHINGTON METRO

CITY           SKY/WX    TMP DP  RH WIND       PRES   REMARKS
WASHINGTON NAT FAIR      70  59  68 S7        30.15R
DULLES         FAIR      69  54  58 S7        30.14S
ANDREWS AFB    FAIR      65  51  60 CALM      30.14S
FT BELVOIR     FAIR      61  59  92 CALM      30.15S
QUANTICO       FAIR      66  62  87 NW6       30.15S
COLLEGE PARK*  FAIR      62  55  76 CALM      30.15S
LEESBURG*      FAIR      66  57  72 S3        30.16S
GAITHERSBURG*  FAIR      68  52  56 SE7       30.16S

$$

MDZ006>007-011-014-250400-
BALTIMORE METRO

CITY           SKY/WX    TMP DP  RH WIND       PRES   REMARKS
BWI AIRPORT    FAIR      63  52  67 CALM      30.14R
MD SCIENCE CTR   N/A     74  47  38 MISG      30.14S
MARTIN STATE   FAIR      66  57  72 CALM      30.15S
ANNAPOLIS      FAIR      69  54  58 CALM      30.14S
FORT MEADE*    FAIR      57  55  94 CALM      30.17S

$$

MDZ012-015-019>023-250400-
MARYLAND EASTERN SHORE

CITY           SKY/WX    TMP DP  RH WIND       PRES   REMARKS
OCEAN CITY     FAIR      64  59  83 CALM      30.17S
SALISBURY      FAIR      63  59  87 S3        30.16S
BAY BRIDGE AP* FAIR      68  55  64 SE7       30.14S
CAMBRIDGE*     CLEAR     66  61  82 S5        30.16S
EASTON*        FAIR      70  59  68 S6        30.19S

$$

MDZ017>025-250400-
SOUTHERN MARYLAND

CITY           SKY/WX    TMP DP  RH WIND       PRES   REMARKS
PATUXENT RIVER FAIR      70  62  76 S6        30.15S
ST INIGOES     FAIR      71  63  75 S9        30.15S
LEONARDTOWN*   FAIR      66  61  82 S3        30.17S

$$

MDZ003>005-250400-
NORTH CENTRAL MARYLAND

CITY           SKY/WX    TMP DP  RH WIND       PRES   REMARKS
FREDERICK*     FAIR      63  55  77 SE3       30.16F
HAGERSTOWN APT FAIR      70  52  52 S5        30.14S
WESTMINSTER*   FAIR      72  48  43 S5        30.15F

$$

MDZ501>502-250400-
WESTERN MARYLAND

CITY           SKY/WX    TMP DP  RH WIND       PRES   REMARKS
OAKLAND*       FAIR      61  41  48 SE9       30.22F
CUMBERLAND*    NOT AVBL

$$

VAZ025>031-250400-
SHENANDOAH VALLEY

CITY           SKY/WX    TMP DP  RH WIND       PRES   REMARKS
WINCHESTER*    FAIR      59  52  77 CALM      30.17S
FRONT ROYAL*   FAIR      63  52  67 S6        30.15F
LURAY*         FAIR      61  54  77 CALM      30.17F
NEW MARKET*    FAIR      59  53  80 CALM      30.16S
STAUNTON*      FAIR      62  57  82 CALM      30.20F
WAYNESBORO*    FAIR      67  53  60 CALM      30.20S

$$

WVZ021-048>050-054>055-250400-
EASTERN WEST VIRGINIA PANHANDLE

CITY           SKY/WX    TMP DP  RH WIND       PRES   REMARKS
MARTINSBURG    FAIR      60  54  80 SW3       30.13F
PETERSBURG*    FAIR      59  56  88 CALM      30.17S

$$

VAZ036>039-050-250400-
CENTRAL FOOTHILLS

CITY           SKY/WX    TMP DP  RH WIND       PRES   REMARKS
CHARLOTTESVILL FAIR      66  57  72 N3        30.17R
CULPEPER*      FAIR      58  55  89 CALM      30.17S
ORANGE*        FAIR      61  55  82 CALM      30.17S
GORDONSVILLE*  FAIR      61  61 100 CALM      30.16S
WARRENTON*     FAIR      57  54  88 CALM      30.15F

$$

VAZ055>057-250400-
NORTH AND CENTRAL PIEDMONT

CITY           SKY/WX    TMP DP  RH WIND       PRES   REMARKS
FREDERICKSBRG* FAIR      64  56  75 CALM      30.15S
STAFFORD*      FAIR      58  58 100 CALM      30.18S

$$

NCZ024-NYZ072-PAZ021-071-VAZ022-071-250400-
OTHER REGIONAL OBSERVATIONS

CITY           SKY/WX    TMP DP  RH WIND       PRES   REMARKS
NEW YORK CITY  FAIR      70  46  42 MISG      30.11S
PHILADELPHIA   FAIR      67  50  54 SW5       30.13S
PITTSBURGH     FAIR      68  53  58 CALM      30.12S
ROANOKE        FAIR      72  59  63 CALM      30.20S
RICHMOND       FAIR      68  62  81 SE6       30.16S
RALEIGH        FAIR      71  60  68 SE5       30.17R

$$

ANZ530>537-250400-
MARINE OBSERVATIONS

STATION/POSITION TIME  TEMP    WIND        PRES
                       AIR SEA DIR/SP/G
                 (UTC) (F)     (DEG/KT/KT) (MB)
THOMAS PT LIGHT  0300   72 68  200/  5/  5 1021.5F
BALT KEY BRIDGE  0248   74     200/  5/  6 1020.4R
COVE POINT       0248   70     200/ 11/ 14 1021.7S
LEWISETTA        0248   69 77  190/  9/ 10 1021.4R
SOLOMONS ISLAND  0248   70 73  150/  5/  7 1020.9F
PINEY POINT      0236          190/ 10/ 11   N/A

$$




USA.gov is the U.S. government's official web portal to all federal, state and local government web resources and services.